Flag for Spain Weather past 2 weeks in Sevilla, Spain

Now
88 °F

Sunny.


Feels Like: 88 °F
Forecast: 70 / 96 °F
Wind: 3 mph from Southwest

Location: Sevilla / San Pablo

Current Time: Jul 29, 2015 at 12:35:37 PM

Latest Report: Jul 29, 2015 at 12:00 PM


Visibility: 10 mi

Pressure: 29.89 "Hg

Humidity: 43%

Dew point: 63 °F

Location of SevillaLocation

Historic Weather in Sevilla — Graph

°F

Sevilla temperature yesterday

Maximum temperature yesterday: 104 °F (at 3:30 PM)
Minimum temperature yesterday: 72 °F (at 7:00 AM)
Average temperature yesterday: 88 °F

Past Weeks' High & Low Weather Summary

 TemperatureHumidityPressure
High106 °F (Jul 15, 5:30 PM)78% (Jul 24, 5:30 AM)30.04 "Hg (Jul 24, 5:30 AM)
Low66 °F (Jul 26, 6:30 AM)10% (Jul 14, 3:30 PM)29.80 "Hg (Jul 28, 6:30 PM)
Average87 °F37%29.93 "Hg
* Reported Jul 14 11:00 AM — Jul 29 11:30 AM, Sevilla, Weather by CustomWeather, © 2015

Note: Actual official high and low records may vary slightly from our data, if they occured in-between our weather recording intervals... More about our weather records

Advertising

Sevilla weather history for previous 24 hours

 ConditionsComfort  
Time TempWeatherWind HumidityBarometerVisibility
11:30 AM
Wed, Jul 29
N/ASunny.1 mphN/AN/A10 mi
11:00 AM82 °FPassing clouds.3 mph55%29.89 "HgN/A
10:30 AM81 °FPassing clouds.3 mph62%29.89 "HgN/A
10:00 AM79 °FPassing clouds.5 mph65%29.89 "HgN/A
9:30 AM77 °FSunny.7 mph69%29.89 "Hg10 mi
9:00 AM75 °FSunny.7 mph69%29.89 "Hg10 mi
8:30 AM73 °FSunny.2 mph69%29.89 "Hg10 mi
8:00 AM73 °FPassing clouds.5 mph65%29.89 "HgN/A
7:30 AM73 °FPassing clouds.3 mph65%29.86 "HgN/A
7:00 AM73 °FPassing clouds.5 mph65%29.86 "HgN/A
6:30 AM75 °FPassing clouds.5 mph61%29.86 "HgN/A
5:30 AM73 °FClear.1 mph61%29.86 "Hg10 mi
5:00 AM73 °FClear.No wind61%29.86 "Hg10 mi
4:30 AM75 °FClear.No wind57%29.86 "Hg10 mi
4:00 AM75 °FPassing clouds.3 mph57%29.86 "HgN/A
3:30 AM75 °FClear.2 mph54%29.86 "Hg10 mi
1:00 AM77 °FPassing clouds.8 mph54%29.89 "HgN/A
11:30 PM
Tue, Jul 28
82 °FClear.9 mph42%29.86 "Hg10 mi
11:00 PM84 °FPassing clouds.9 mph40%29.86 "HgN/A
10:30 PM88 °FPassing clouds.8 mph31%29.83 "HgN/A
10:00 PM91 °FPassing clouds.6 mph28%29.80 "HgN/A
9:30 PM93 °FSunny.10 mph26%29.80 "Hg10 mi
9:00 PM95 °FSunny.10 mph22%29.80 "Hg10 mi
8:00 PM100 °FPassing clouds.10 mph16%29.80 "HgN/A
7:30 PM100 °FPassing clouds.10 mph16%29.80 "HgN/A
7:00 PM102 °FPassing clouds.9 mph15%29.80 "HgN/A
6:30 PM100 °FPassing clouds.12 mph18%29.80 "HgN/A
6:00 PM100 °FPassing clouds.13 mph20%29.83 "HgN/A
5:30 PM104 °FPassing clouds.10 mph14%29.83 "HgN/A
5:00 PM104 °FPassing clouds.9 mph14%29.83 "HgN/A
4:30 PM104 °FPassing clouds.8 mph17%29.83 "HgN/A
4:00 PM104 °FPassing clouds.5 mph19%29.83 "HgN/A
3:30 PM104 °FPassing clouds.6 mph17%29.83 "HgN/A
3:00 PM102 °FSunny.2 mph18%29.83 "Hg10 mi
2:30 PM100 °FSunny.3 mph18%29.86 "Hg10 mi
2:00 PM99 °FSunny.2 mph21%29.86 "Hg10 mi
1:30 PM99 °FSunny.1 mph21%29.86 "Hg10 mi
1:00 PM97 °FSunny.No wind23%29.89 "Hg10 mi
12:30 PM95 °FSunny.1 mph25%29.89 "Hg10 mi
12:00 PM91 °FSunny.1 mph28%29.89 "Hg10 mi
Weather by CustomWeather, © 2015

See weather overviewHow to use our weather pages